FLOCK 4V-23 (46737 NORAD) Tracking and Keplerian Element Data

This shows tracking and keplerian element data for the satellite.

Feedback or suggestion? Click here.




ElementValue
Catalog46737
NameFLOCK 4V-23
Epoch Orbit629
Epoch Day336.35067521
Epoch Year2020
RAAN47.8467
Inclination97.4544
Eccentricity0.0003383
Argument of Perigee268.296
Mean Anonmoly91.7879
Mean Motion15.1571358
Decay Rate1.546E-05
L11 46737U 20061BM 20336.35067521 .00001546 00000-0 84594-4 0 9999
L22 46737 97.4544 47.8467 0003383 268.2960 91.7879 15.15713580 6292

Live tracking and technical data element details for FLOCK 4V-23 (NORAD 46737). FLOCK 4V-23 can be tracked NOW for your location showing map with azimuth and elevation plus other details from your city location.

Track the satellite on the map from your city or location and see movement details for azimuth, elevation, latitude, longitude, range, height, and movement on the map or in text.







IsCatalogInMostPopularTable: catalog: 46737, numindb: 14
Update: records affected: 1



GetName: 46737 FLOCK 4V-23

Hit Count: updated at: Fri, 04 Dec 2020 20:46:57 GMT